This demonstration page uses our WeatherBlox Daily Observations layout. Learn more.

Left ArrowRight Arrow

36.17497, -115.13722

Hourly Observations for October 12, 2016

Temp ( °F °C ) Dew Point ( °F °C ) Humidity (%) Winds ( mph kmh ) Pressure ( in mb ) Visibility ( mi km ) Precip ( " mm )
12:53 am 00:53 Clear 67 19.4 28 -2.2 23 23 N 6 9 29.95 1014 10 16.0934 0 0
1:53 am 01:53 Clear 67 19.4 29 -1.7 24 24 W 3 6 29.95 1014 10 16.0934 0 0
2:53 am 02:53 Clear 65 18.3 33 0.6 31 31 NW 8 13 29.95 1014 10 16.0934 0 0
3:53 am 03:53 Clear 65 18.3 29 -1.7 26 26 NNW 5 7 29.95 1014 10 16.0934 0 0
4:53 am 04:53 Clear 63 17.2 27 -2.8 26 26 NNW 6 9 29.96 1015 10 16.0934 0 0
5:53 am 05:53 Clear 63 17.2 28 -2.2 27 27 NW 3 6 29.98 1015 10 16.0934 0 0
6:53 am 06:53 Sunny 63 17.2 29 -1.7 28 28 Calm 29.99 1016 10 16.0934 0 0
7:53 am 07:53 Sunny 65 18.3 33 0.6 31 31 NW 3 6 30.01 1016 10 16.0934 0 0
8:53 am 08:53 Sunny 70 21.1 30 -1.1 23 23 Calm 30.01 1016 10 16.0934 0 0
9:53 am 09:53 Sunny 74 23.3 30 -1.1 20 20 Calm 30.01 1016 10 16.0934 0 0
10:53 am 10:53 Sunny 78 25.6 30 -1.1 17 17 S 5 7 30.01 1016 10 16.0934 0 0
11:53 am 11:53 Sunny 81 27.2 32 0 17 17 ESE 7 11 29.99 1016 10 16.0934 0 0
12:53 pm 12:53 Sunny 82 27.8 30 -1.1 15 15 VRB 6 9 29.97 1015 10 16.0934 0 0
1:53 pm 13:53 Sunny 83 28.3 31 -0.6 15 15 Calm 29.94 1014 10 16.0934 0 0
2:53 pm 14:53 Sunny 85 29.4 31 -0.6 14 14 SE 6 9 29.92 1013 10 16.0934 0 0
3:53 pm 15:53 Sunny 86 30 32 0 14 14 ESE 7 11 29.91 1013 10 16.0934 0 0
4:53 pm 16:53 Sunny 85 29.4 31 -0.6 14 14 SSE 3 6 29.9 1013 10 16.0934 0 0
5:53 pm 17:53 Sunny 84 28.9 31 -0.6 15 15 ESE 6 9 29.91 1013 10 16.0934 0 0
6:53 pm 18:53 Clear 81 27.2 31 -0.6 16 16 ESE 3 6 29.92 1013 10 16.0934 0 0
7:53 pm 19:53 Clear 78 25.6 34 1.1 20 20 NW 6 9 29.94 1014 10 16.0934 0 0
8:53 pm 20:53 Clear 74 23.3 36 2.2 25 25 NW 6 9 29.94 1014 10 16.0934 0 0
9:53 pm 21:53 Clear 71 21.7 34 1.1 26 26 NNW 6 9 29.95 1014 10 16.0934 0 0
10:53 pm 22:53 Clear 69 20.6 34 1.1 27 27 NNW 7 11 29.96 1015 10 16.0934 0 0
11:53 pm 23:53 Clear 69 20.6 32 0 25 25 WNW 5 7 29.96 1015 10 16.0934 0 0

Powered by AerisWeather